Home > Weather > Euskirchen > Past weeks

Flag for Germany Weather for the Past 2 Weeks in Euskirchen, North Rhine-Westphalia, Germany

Now
57 °F

Scattered clouds.


Feels Like: 54 °F
Forecast: 33 / 59 °F
Wind: 13 mph from Northwest

Location: Noervenich

Current Time: May 3, 2016 at 5:00:22 PM

Latest Report: May 3, 2016 at 4:20 PM


Visibility: N/A

Pressure: 30.24 "Hg

Humidity: 39%

Dew Point: 32 °F

Location of EuskirchenLocation

Historic Weather in Euskirchen — Graph

°F

Euskirchen Temperature Yesterday

Maximum temperature yesterday: 66 °F (at 3:20 PM)
Minimum temperature yesterday: 37 °F (at 6:20 AM)
Average temperature yesterday: 54 °F

High & Low Weather Summary for the Past Weeks

 TemperatureHumidityPressure
High68 °F (Apr 21, 4:20 PM)100% (Apr 30, 5:20 AM)30.48 "Hg (Apr 30, 5:20 AM)
Low34 °F (Apr 21, 6:20 AM)26% (Apr 21, 4:20 PM)29.53 "Hg (Apr 26, 10:20 AM)
Average46 °F70%30.03 "Hg
* Reported Apr 18 3:20 PM — May 3 3:20 PM, Euskirchen, Weather by CustomWeather, © 2016

Note: Actual official high and low records may vary slightly from our data, if they occured in-between our weather recording intervals... More about our weather records

Advertising

Euskirchen Weather History for the Previous 24 Hours

Scroll right to see more
 ConditionsComfort  
Time TempWeatherWind HumidityBarometerVisibility
3:20 PM
Tue, May 3
57 °FScattered clouds.14 mph39%30.24 "HgN/A
2:20 PM57 °FScattered clouds.13 mph44%30.21 "HgN/A
1:20 PM55 °FScattered clouds.14 mph55%30.21 "HgN/A
12:20 PM55 °FCool.13 mph63%30.18 "HgN/A
11:20 AM54 °FCool.8 mph67%30.18 "HgN/A
10:20 AM50 °FCool.8 mph82%30.18 "HgN/A
9:20 AM52 °FCool.8 mph77%30.15 "HgN/A
8:20 AM48 °FCool.7 mph87%30.12 "HgN/A
7:20 AM48 °FCool.10 mph94%30.12 "HgN/A
6:20 AM52 °FLight rain. Overcast.12 mph88%30.07 "Hg5 mi
5:20 AM52 °FOvercast.3 mph77%30.07 "HgN/A
4:20 AM52 °FLight rain. Mostly cloudy.No wind72%30.07 "HgN/A
3:20 AM54 °FPartly cloudy.2 mph63%30.09 "HgN/A
2:20 AM54 °FPartly cloudy.7 mph58%30.09 "HgN/A
1:20 AM52 °FPartly cloudy.2 mph58%30.09 "HgN/A
12:20 AM54 °FPartly cloudy.2 mph58%30.12 "HgN/A
11:20 PM
Mon, May 2
55 °FPassing clouds.5 mph63%30.12 "HgN/A
10:20 PM57 °FPassing clouds.5 mph63%30.12 "HgN/A
9:20 PM59 °FPartly sunny.6 mph63%30.12 "HgN/A
8:20 PM61 °FPartly sunny.3 mph55%30.09 "HgN/A
7:20 PM63 °FPartly sunny.7 mph56%30.09 "HgN/A
6:20 PM66 °FPartly sunny.5 mph46%30.12 "HgN/A
5:20 PM66 °FScattered clouds.2 mph43%30.12 "HgN/A
Weather by CustomWeather, © 2016

See weather overviewHow to use our weather pages